Regional Weather Roundup
Issued by NWS State College, PA

Home | Current Version | Previous Version | Graphics & Text | Print | Product List | Glossary On
Versions: 1 2 3 4 5 6 7 8 9 10 11 12 13 14 15 16 17 18 19 20 21 22 23 24 25 26 27 28 29 30 31 32 33 34 35 36 37 38 39 40 41 42 43 44 45 46 47 48 49 50
000
ASUS41 KCTP 251110
RWRCTP

REGIONAL WEATHER ROUNDUP
NATIONAL WEATHER SERVICE STATE COLLEGE PA
700 AM EDT THU AUG 25 2016

Note: "fair" indicates few or no clouds below 12,000 feet with no
significant weather and/or obstructions to visibility.

* = STATION THAT DOES NOT REPORT PRECIPITATION /E.G. RAIN...SNOW...ETC/
    THUNDER OR FOG.

PAZ002>004-007>009-013>016-020>023-029>032-251200-
WESTERN PENNSYLVANIA

CITY           SKY/WX    TMP DP  RH WIND       PRES   REMARKS
ERIE           CLOUDY    75  73  93 W9        29.97R
MEADVILLE      CLOUDY    71  69  93 SW15      30.02R
FRANKLIN*      CLOUDY    70  66  88 SW8       30.05R
NEW CASTLE     CLOUDY    72  71  97 SW6       30.05R
BEAVER COUNTY  CLOUDY    72  70  94 W5        30.05
BUTLER*        NOT AVBL
PITTSBURGH INT CLOUDY    72  69  90 W5        30.07R
PITTSBURGH     MOCLDY    72  68  87 SW10      30.06R
INDIANA*       CLOUDY    72  70  94 SW12      30.10R
LATROBE        MOCLDY    72  72 100 SW12      30.08S
WASHINGTON CO* CLOUDY    72  68  88 SW6       30.08S
$$

PAZ004>006-010>012-017>019-024>028-033>037-041-042-045-046-049>053-251200-
CENTRAL PENNSYLVANIA

CITY           SKY/WX    TMP DP  RH WIND       PRES   REMARKS
BRADFORD       CLOUDY    68  67  96 S6        30.07R
DUBOIS         CLOUDY    70  66  87 SW7       30.06R
CLEARFIELD     LGT RAIN  66  65  96 CALM      30.07S
JOHNSTOWN      RAIN      69  66  90 SW10      30.12R FOG
ALTOONA        CLOUDY    67  66  97 SW5       30.09F
STATE COLLEGE  PTCLDY    68  64  88 W3        30.07F
WILLIAMSPORT   CLOUDY    71  64  78 E6        30.05F
SELINSGROVE    MOCLDY    68  66  93 S3        30.09S
FT INDIANTOWN  CLOUDY    63  63 100 NE2       30.11S
CAPITAL CITY   CLOUDY    71  62  73 S5        30.10S
HARRISBURG     CLOUDY    69  65  86 SE5       30.09F
YORK           PTCLDY    67  62  84 CALM      30.11S
$$

PAZ038>040-043-044-047-048-054-055-060>062-067>071-251200-
EASTERN PENNSYLVANIA

CITY           SKY/WX    TMP DP  RH WIND       PRES   REMARKS
SCRANTON       CLEAR     69  62  78 CALM      30.10S
MOUNT POCONO   CLEAR     62  32  32 W6        30.16R
ALLENTOWN      CLEAR     64  60  87 CALM      30.13R
QUAKERTOWN*    SUNNY     63  63 100 CALM      30.14S
READING        CLOUDY    69  62  78 CALM      30.11R
LANCASTER      CLOUDY    65  65 100 NE3       30.12R FOG
COATESVILLE    CLOUDY    64  63  94 CALM      30.15S FOG
POTTSTOWN      LGT RAIN  66  63  90 CALM      30.15R
BLUE BELL      CLEAR     64  63  94 S3        30.13S
DOYLESTOWN     CLEAR     67  64  90 VRB3      30.13S
WILLOW GROVE   NOT AVBL
NORTH PHILA    CLEAR     70  63  78 CALM      30.14S
PHILADELPHIA   MOCLDY    69  61  75 S6        30.13F
$$




USA.gov is the U.S. government's official web portal to all federal, state and local government web resources and services.